Simultaneous Nadir Overpasses (SNOs) Predictions

Prediction of SNOs between METOP-B and TERRA Satellite Orbit:

Table of predicted SNOs for the next 14.0 days since TLE Epoch: 12/21/2019
Index Date (METOP-B) Time (METOP-B) Lat,Lon (METOP-B) SZA (METOP-B ) Date (TERRA) Time (TERRA) Lat,Lon (TERRA) SZA (TERRA ) Distance(km) Time Diff (sec)
1 12/22/2019 00:35:02 -81.28, 37.87 72.68 12/22/2019 00:35:49 -81.27, 37.72 72.68 2.72 47
2 12/22/2019 01:25:42 81.29,-154.35 107.38 12/22/2019 01:25:15 81.28,-154.47 107.35 2.18 27
3 12/24/2019 20:09:26 -81.28, 104.34 72.73 12/24/2019 20:10:04 -81.27, 104.24 72.73 1.85 38
4 12/24/2019 21:00:06 81.29, -87.91 107.32 12/24/2019 20:59:30 81.28, -87.97 107.29 1.20 36
5 12/27/2019 15:43:50 -81.28, 170.80 72.85 12/27/2019 15:44:19 -81.28, 170.74 72.85 1.20 29
6 12/27/2019 16:34:30 81.29, -21.48 107.20 12/27/2019 16:33:45 81.29, -21.49 107.17 0.44 45
7 12/30/2019 11:18:13 -81.28,-122.74 73.03 12/30/2019 11:18:33 -81.28,-122.78 73.03 0.77 20
8 12/30/2019 12:08:53 81.29, 44.94 107.01 12/30/2019 12:07:59 81.29, 44.96 106.99 0.37 54
9 01/02/2020 06:52:37 -81.28, -56.29 73.28 01/02/2020 06:52:48 -81.28, -56.32 73.28 0.56 11




NCC Satellite Simultaneous Nadir Overpasses (SNOs) Prediction Service
